Temperature
14 14 14 15 15 15 15 15 15 15 15 15 16 16 16 16 16 16 16 16 16 16 16 15 15 15 15 15 15 15 15 15 15 15 14 14 14 14
14 14 14 14 15 15 15 15 15 15 15 15 15 16 16 16 16 16 15 16 16 15 15 15 15 15 15 15 15 15 14 14 14 14 14 14 14 13
13 14 14 14 14 14 15 15 15 15 15 15 15 15 15 15 15 15 15 15 15 15 15 15 15 15 14 14 14 14 14 14 14 14 14 13 13 13
13 13 13 14 14 14 14 14 14 14 14 14 14 14 14 15 15 15 15 15 15 15 15 14 14 14 14 14 14 14 13 13 13 13 13 13 13 13
13 13 13 13 14 14 14 14 14 14 14 14 14 14 14 14 14 14 14 14 14 14 14 14 14 14 14 13 13 13 13 13 13 13 13 12 12 12
13 13 13 13 13 13 14 14 14 14 14 14 14 14 14 14 14 14 14 13 13 13 13 13 13 13 13 13 13 13 13 13 12 12 12 12 12 12
13 13 13 13 13 13 13 14 14 14 14 14 14 13 13 13 13 13 13 13 13 13 13 13 13 12 12 12 12 12 12 12 12 12 12 12 12 11
12 12 12 13 13 13 13 13 13 13 14 14 14 13 13 13 13 13 13 13 12 12 12 12 12 12 12 12 12 12 12 12 12 11 11 11 11 11
12 12 12 12 13 13 13 13 13 13 13 13 14 13 13 13 13 13 13 12 12 12 12 12 11 11 11 12 12 11 11 11 11 11 11 11 11 11
12 12 12 12 12 13 13 13 13 13 13 13 13 13 13 13 13 13 13 12 12 12 12 11 11 11 11 11 11 11 11 11 11 11 11 11 10 10
12 12 12 12 12 13 12 13 13 13 13 13 13 13 13 13 13 12 12 12 12 11 11 11 11 10 10 10 10 10 10 10 10 10 10 10 10 10
12 12 12 12 12 12 12 12 12 12 12 12 12 13 13 13 12 12 12 12 11 11 11 11 10 10 10 10 10 10 10 10 10 10 10 10 10 9
12 12 12 12 12 12 12 12 12 12 12 12 12 12 12 12 12 12 12 12 12 11 11 11 10 10 10 10 9 9 9 9 9 9 9 9 9 9
11 12 12 12 12 12 12 12 12 12 12 12 12 12 12 12 12 12 12 12 11 11 11 11 11 10 10 10 9 9 9 9 9 9 9 9 9 9
11 12 12 12 12 12 12 12 12 12 12 12 12 12 11 12 12 11 11 11 11 11 11 11 10 10 10 10 10 9 9 9 8 8 8 8 8 8
11 11 12 12 12 12 12 12 11 11 11 12 11 11 11 11 11 11 11 11 10 10 10 10 10 10 10 10 10 9 9 9 9 8 8 8 8 8
11 11 11 11 11 11 11 11 11 11 11 11 11 11 11 11 11 11 10 10 10 10 10 10 10 10 10 10 9 9 9 9 9 8 8 8 8 8
11 11 11 11 11 11 11 11 11 11 11 11 11 11 10 10 10 10 10 10 10 10 10 10 10 10 9 9 9 9 9 9 8 8 8 8 8 8
11 11 11 11 11 11 11 11 11 11 11 10 10 10 10 10 10 10 10 10 10 10 10 9 9 9 10 10 9 9 9 9 8 8 8 8 8 8
11 11 11 11 11 11 11 11 11 10 10 10 10 10 10 10 10 10 10 10 10 10 9 9 9 9 10 10 10 9 9 8 8 8 8 8 8 8
11 11 11 11 11 11 11 11 10 10 10 10 10 10 10 10 10 10 10 10 9 9 9 9 9 9 9 9 9 9 9 9 8 8 8 8 8 8
11 11 11 11 11 11 11 11 11 10 10 10 10 10 10 10 10 9 9 9 9 9 9 9 9 9 8 8 9 9 8 8 8 8 8 8 8 8
11 11 11 11 11 11 11 11 11 11 10 10 10 10 10 10 9 9 9 9 9 9 9 8 8 8 8 8 8 8 8 8 8 8 8 8 8 8
Wind_Speed
8 9 8 7 7 7 6 6 6 6 7 6 5 6 7 8 9 11 11 15 15 14 13 13 12 12 11 10 9 8 7 7 6 5 5 4 4 3
6 8 8 7 7 7 7 8 8 6 5 5 5 5 6 7 9 10 10 14 15 15 14 14 13 13 13 12 10 8 8 7 6 5 5 4 3 3
6 7 8 8 7 7 7 7 8 7 7 4 3 4 6 7 7 8 9 9 11 14 14 14 14 13 12 12 10 9 9 8 7 7 6 5 4 3
6 6 7 6 8 7 6 7 7 7 6 6 4 4 5 6 6 6 6 6 7 12 13 13 13 13 12 11 10 9 9 8 8 7 6 5 5 4
5 5 6 6 7 6 6 6 6 6 6 6 5 4 4 5 6 6 6 5 6 9 11 12 12 12 12 12 11 10 9 8 8 7 7 6 5 5
3 4 5 5 6 6 6 7 6 7 7 7 6 6 5 6 6 6 6 5 4 6 7 9 11 11 11 11 11 11 10 9 9 9 8 8 7 6
3 3 3 3 3 3 4 6 7 7 7 7 7 6 6 7 7 6 6 6 4 4 5 5 6 6 8 9 10 10 10 10 10 10 10 10 9 7
2 2 2 4 4 4 2 3 4 7 8 8 7 8 9 8 7 8 7 6 4 4 4 4 3 4 4 6 8 9 10 11 11 11 11 10 9 8
0 0 1 2 4 4 5 5 4 3 5 7 8 9 9 10 10 10 9 7 4 6 5 3 3 4 4 7 9 10 10 11 11 11 10 10 10 10
2 1 1 0 1 2 4 4 3 2 3 5 6 7 7 9 10 9 8 7 6 4 3 3 3 3 4 6 8 9 10 11 11 11 10 11 11 10
3 3 2 1 2 0 3 4 4 3 4 4 4 4 6 8 9 8 9 9 5 3 2 3 4 3 3 3 7 9 10 11 11 11 11 11 10 9
3 3 4 3 2 1 3 4 5 4 5 5 6 7 8 9 9 8 8 8 6 4 4 4 5 4 3 2 3 6 8 9 10 11 10 10 8 5
3 3 3 5 3 2 1 2 4 4 4 4 5 5 5 6 5 5 5 6 6 4 6 5 5 4 4 4 3 4 5 6 7 8 9 9 5 3
3 3 3 4 4 3 2 5 4 3 4 5 5 5 5 5 5 5 5 4 3 4 9 7 5 5 5 5 4 5 5 5 6 6 7 8 6 4
3 5 5 3 3 4 5 4 3 3 4 4 5 4 4 5 6 6 7 7 8 7 7 6 6 6 5 4 5 6 5 5 6 5 5 5 6 6
1 3 3 3 3 4 4 3 2 2 3 4 5 5 5 5 5 6 6 6 6 5 4 5 5 6 4 4 5 6 6 6 6 6 5 4 5 5
2 1 1 1 2 2 2 2 2 3 4 4 5 5 5 5 5 5 5 5 5 5 5 4 4 4 3 4 5 6 6 5 6 6 6 5 5 6
3 2 2 2 2 2 2 3 3 3 4 4 5 5 5 6 5 5 5 5 5 6 6 6 6 5 4 2 1 6 6 6 6 6 6 6 6 6
4 3 3 3 3 3 3 3 3 4 4 4 5 5 5 6 6 6 5 5 5 6 6 6 6 6 7 6 5 5 6 6 6 6 7 6 6 5
6 5 5 4 4 4 4 4 4 4 5 5 5 5 6 6 6 6 6 6 6 6 6 6 6 6 5 3 3 5 8 7 7 7 7 6 6 3
7 7 6 6 6 6 6 5 6 6 6 6 6 6 6 6 6 6 6 7 6 7 7 7 4 1 2 1 3 5 7 8 5 5 6 6 6 7
8 8 8 7 7 7 7 7 7 7 7 7 7 7 7 7 8 8 8 8 8 7 7 5 6 5 6 6 6 5 6 7 7 8 8 8 6 5
10 9 9 9 9 8 8 9 10 9 8 8 8 8 8 8 8 8 8 8 8 8 7 7 6 6 7 6 6 5 6 7 6 7 9 15 18 16
Wind_Direction
228 224 222 220 211 210 210 212 206 206 208 200 192 198 200 203 177 192 197 183 186 186 186 186 183 182 179 178 179 180 184 183 182 188 198 208 213 223
228 226 224 222 213 212 213 216 218 217 214 192 192 185 190 193 186 196 196 172 180 181 182 180 178 179 177 175 174 176 175 174 177 178 182 183 194 200
228 224 222 221 218 213 212 212 213 212 215 196 178 169 179 184 174 181 179 176 176 175 178 178 177 175 172 169 169 170 170 169 168 164 165 164 160 155
231 226 223 215 214 213 209 209 208 207 205 192 182 177 184 180 169 166 162 165 163 161 167 171 171 170 168 167 167 167 165 164 163 161 160 157 152 143
230 227 224 217 212 207 205 204 202 201 201 193 185 179 177 173 166 157 149 137 136 146 155 158 161 162 164 166 164 161 158 157 156 154 151 146 138 134
231 228 221 217 217 212 207 205 203 203 199 192 185 180 174 171 172 164 153 144 138 138 140 142 145 149 154 159 162 161 160 157 154 149 142 137 134 131
221 219 212 211 223 228 222 209 201 201 198 192 186 182 179 175 177 170 160 146 137 144 142 141 144 147 153 153 153 153 154 153 151 146 138 132 128 123
222 208 192 192 187 190 200 219 217 207 199 193 192 189 189 182 171 166 162 159 155 157 148 133 137 137 136 137 139 142 146 151 149 144 138 134 130 127
347 205 191 173 192 186 171 187 199 214 221 211 200 196 192 184 175 173 176 171 152 151 142 125 122 114 107 115 133 142 144 144 143 141 137 135 133 129
29 32 21 116 156 181 176 177 174 187 212 218 210 202 193 181 179 173 160 136 114 125 140 131 133 117 106 107 117 132 139 140 140 140 138 136 133 133
39 36 27 53 76 137 185 169 159 143 97 82 80 127 133 147 154 150 150 149 144 144 146 135 140 128 114 101 109 122 133 138 140 138 136 136 140 150
43 49 53 40 33 303 196 171 157 146 140 131 123 130 137 140 151 166 164 163 153 151 162 147 151 150 138 129 131 137 134 134 140 143 144 147 159 184
41 44 48 49 45 16 307 144 128 134 137 131 126 129 134 139 147 152 159 168 164 153 160 156 161 167 152 148 161 170 163 158 158 157 160 165 180 241
33 43 58 55 63 55 81 98 107 136 143 139 135 131 130 129 125 121 122 112 105 134 156 161 162 172 162 161 164 173 180 180 180 178 173 171 187 204
41 45 44 51 104 107 103 120 163 162 149 143 135 123 117 120 119 115 111 103 93 104 143 161 159 166 175 176 165 169 179 188 192 190 185 189 195 194
74 101 108 74 99 111 144 158 155 131 142 136 129 128 127 130 136 139 138 136 124 116 120 141 157 168 183 171 170 176 182 182 188 196 198 207 215 211
322 223 169 150 133 124 125 127 139 143 140 141 144 147 146 144 142 145 155 163 161 153 144 135 134 141 161 176 184 186 187 188 185 190 201 214 220 220
273 225 206 193 174 165 166 161 160 157 156 158 161 161 160 160 157 159 171 175 168 163 159 159 157 156 164 166 236 197 193 192 188 189 207 222 226 217
251 240 225 215 207 200 194 192 185 170 164 170 173 171 171 170 170 171 176 177 173 171 170 177 187 194 202 198 180 221 206 192 191 198 211 224 235 227
239 243 237 226 217 213 207 203 197 186 183 184 183 181 180 181 182 183 184 185 179 176 179 188 202 212 226 226 174 180 210 205 202 211 214 222 234 240
234 234 235 230 224 218 213 208 205 201 197 197 196 194 194 194 194 195 191 177 191 192 194 194 176 184 195 187 201 194 187 207 239 233 226 223 230 232
238 234 231 230 224 220 215 212 211 207 205 207 203 201 203 206 204 202 198 192 200 205 200 174 157 183 204 218 226 207 189 189 208 237 254 252 245 244
234 232 229 224 223 219 216 214 215 213 210 210 207 205 205 207 209 207 204 205 204 200 193 185 185 198 212 220 229 227 217 213 213 216 228 228 235 249
Height
1487 1489 1491 1493 1496 1498 1501 1504 1507 1509 1511 1513 1515 1518 1521 1523 1526 1528 1531 1532 1535 1537 1539 1540 1542 1543 1545 1546 1547 1548 1549 1550 1550 1551 1551 1551 1551 1552
1484 1485 1487 1490 1492 1495 1497 1500 1503 1505 1507 1509 1511 1514 1517 1519 1521 1524 1527 1529 1531 1533 1535 1537 1539 1540 1542 1543 1544 1545 1546 1547 1548 1548 1548 1549 1549 1549
1481 1482 1484 1486 1489 1491 1493 1496 1498 1501 1504 1506 1508 1510 1512 1515 1518 1520 1523 1525 1527 1529 1531 1533 1535 1537 1538 1540 1541 1542 1543 1544 1545 1545 1546 1546 1547 1547
1478 1480 1481 1483 1485 1487 1489 1492 1494 1497 1500 1502 1504 1506 1509 1511 1514 1516 1519 1521 1523 1525 1527 1529 1531 1533 1535 1536 1538 1539 1540 1541 1542 1543 1543 1544 1544 1544
1476 1477 1479 1481 1483 1484 1486 1488 1490 1493 1496 1498 1500 1503 1505 1508 1510 1513 1515 1517 1519 1521 1523 1525 1528 1529 1531 1533 1534 1536 1537 1538 1539 1540 1540 1541 1541 1542
1475 1476 1477 1478 1480 1482 1483 1485 1487 1490 1492 1494 1497 1499 1502 1504 1507 1509 1511 1513 1516 1518 1520 1522 1524 1526 1528 1529 1531 1532 1534 1535 1536 1537 1538 1538 1539 1539
1474 1474 1475 1476 1478 1479 1481 1483 1484 1486 1488 1490 1493 1496 1498 1500 1503 1505 1508 1510 1513 1515 1517 1519 1521 1523 1525 1526 1528 1529 1531 1532 1533 1534 1535 1536 1537 1537
1473 1474 1474 1475 1476 1477 1478 1480 1482 1484 1485 1487 1489 1492 1494 1497 1499 1502 1505 1507 1510 1513 1515 1517 1519 1521 1522 1524 1525 1527 1528 1530 1531 1532 1533 1533 1534 1535
1473 1473 1473 1474 1475 1476 1477 1478 1480 1481 1483 1485 1487 1488 1491 1493 1496 1498 1501 1504 1506 1509 1512 1514 1516 1518 1520 1521 1523 1524 1526 1527 1528 1530 1531 1531 1532 1533
1473 1472 1473 1473 1474 1475 1476 1477 1478 1479 1481 1483 1484 1486 1488 1491 1493 1496 1498 1501 1504 1507 1510 1512 1514 1516 1518 1520 1521 1523 1524 1526 1527 1528 1529 1530 1530 1531
1473 1473 1473 1473 1473 1474 1475 1476 1477 1478 1479 1480 1481 1483 1485 1488 1490 1493 1496 1499 1502 1505 1507 1510 1512 1515 1517 1519 1520 1521 1523 1524 1526 1527 1527 1528 1529 1529
1474 1474 1473 1473 1474 1474 1475 1476 1477 1477 1478 1479 1481 1482 1484 1487 1489 1492 1495 1498 1500 1503 1505 1508 1511 1513 1516 1518 1519 1520 1522 1523 1524 1525 1526 1527 1528 1528
1475 1474 1474 1474 1474 1474 1475 1476 1477 1478 1478 1479 1481 1482 1484 1486 1489 1491 1494 1497 1499 1501 1503 1506 1509 1511 1514 1516 1518 1519 1521 1522 1523 1524 1525 1525 1526 1527
1476 1476 1475 1474 1474 1475 1475 1476 1477 1478 1479 1480 1481 1483 1484 1486 1488 1490 1492 1495 1498 1500 1502 1504 1506 1509 1512 1514 1516 1518 1519 1521 1522 1523 1524 1524 1524 1525
1477 1476 1476 1475 1475 1476 1476 1476 1477 1479 1479 1480 1482 1483 1484 1486 1488 1490 1492 1494 1496 1498 1501 1503 1505 1508 1510 1512 1514 1515 1517 1519 1520 1521 1522 1522 1523 1523
1479 1478 1477 1477 1477 1477 1477 1477 1478 1479 1480 1481 1482 1483 1485 1486 1488 1490 1492 1494 1496 1497 1499 1502 1504 1506 1509 1511 1512 1514 1516 1517 1518 1519 1520 1521 1521 1522
1480 1479 1479 1478 1478 1478 1478 1478 1478 1479 1480 1481 1482 1483 1485 1486 1488 1489 1491 1494 1496 1497 1499 1501 1503 1505 1507 1509 1511 1512 1514 1515 1516 1516 1517 1518 1519 1519
1480 1480 1479 1479 1478 1478 1478 1478 1479 1479 1480 1481 1482 1483 1484 1486 1487 1489 1491 1493 1495 1497 1498 1500 1502 1504 1506 1507 1509 1509 1511 1512 1513 1513 1514 1515 1516 1517
1479 1479 1478 1478 1478 1478 1478 1478 1478 1479 1479 1480 1481 1482 1484 1485 1487 1488 1490 1492 1494 1496 1497 1499 1501 1503 1505 1506 1505 1506 1508 1509 1510 1510 1511 1512 1513 1514
1477 1477 1477 1476 1476 1476 1476 1477 1477 1478 1478 1479 1480 1481 1482 1484 1485 1487 1489 1491 1492 1494 1495 1497 1498 1500 1502 1504 1504 1503 1504 1505 1506 1508 1508 1509 1509 1509
1474 1473 1473 1473 1473 1473 1474 1474 1475 1475 1476 1477 1478 1479 1480 1482 1483 1485 1487 1488 1490 1492 1493 1494 1495 1496 1498 1499 1500 1500 1501 1501 1502 1504 1505 1506 1506 1506
1469 1469 1469 1469 1469 1470 1470 1471 1471 1472 1473 1474 1475 1476 1477 1479 1481 1482 1484 1485 1487 1489 1490 1491 1491 1493 1494 1496 1498 1499 1498 1498 1498 1499 1500 1501 1502 1503
1464 1464 1464 1464 1464 1465 1465 1466 1467 1468 1469 1470 1471 1472 1473 1475 1476 1478 1480 1482 1483 1485 1486 1487 1488 1489 1491 1493 1494 1495 1495 1495 1495 1495 1495 1496 1496 1497